1530334800.58,15100,16.44,73120.8,1.89,-0.07,-0.07,0,*78
1530334801.77,15101,16.44,73138.8,1.89,0.05,0.05,0,*79
1530334803.01,15102,16.44,73134.3,1.89,0.79,0.79,0,*7A
1530334804.21,15103,16.44,73128.0,1.89,1.01,1.05,0,*7F
1530334805.44,15104,16.44,73124.0,1.89,0.91,1.01,0,*44
1530334806.63,15105,16.44,73134.3,1.85,0.97,0.97,0,*71
1530334807.85,15106,16.44,73130.3,1.85,0.97,0.91,0,*74
1530334809.07,15107,16.44,73138.0,1.85,0.91,0.97,0,*75
1530334810.27,15108,16.44,73146.5,1.85,0.97,1.01,0,*42
1530334811.51,15109,16.44,73136.8,1.85,0.87,0.79,0,*7C
1530334812.73,15110,16.44,73146.5,1.85,0.87,0.97,0,*74
1530334813.98,15111,16.44,73150.3,1.85,0.91,0.79,0,*72
1530334815.2,15112,16.44,73148.5,1.85,0.97,0.91,0,*71
1530334816.45,15113,16.44,73140.3,1.85,0.87,0.87,0,*76
1530334817.69,15114,16.44,73150.8,1.85,0.87,0.87,0,*71
1530334818.89,15115,16.44,73148.8,1.85,1.01,1.01,0,*70
1530334820.12,15116,16.44,73148.3,1.85,0.97,0.91,0,*75
1530334821.34,15117,16.44,73154.5,1.85,0.97,0.87,0,*73
1530334822.58,15118,16.44,73154.0,1.85,0.79,0.79,0,*7D
1530334823.83,15119,16.44,73162.8,1.85,0.79,0.87,0,*7D
1530334825.08,15120,16.44,73168.5,1.85,0.91,0.87,0,*71
1530334826.33,15121,16.44,73182.0,1.85,0.87,0.91,0,*70
1530334827.57,15122,16.44,73178.0,1.85,0.87,0.87,0,*74
1530334828.77,15123,16.44,73194.8,1.85,1.01,1.01,0,*75
1530334830.01,15124,16.44,73198.5,1.83,1.09,1.09,0,*74
1530334831.24,15125,16.44,73182.8,1.83,1.09,1.13,0,*7E
1530334832.5,15126,16.44,73180.0,1.85,1.09,1.09,0,*70
1530334833.73,15127,16.44,73194.0,1.83,1.13,1.17,0,*73
1530334834.98,15128,16.44,73186.8,1.85,1.25,1.25,0,*7E
1530334836.23,15129,16.44,73182.5,1.85,1.25,1.29,0,*73
1530334837.43,15130,16.44,73188.5,1.85,1.41,1.41,0,*77
1530334838.67,15131,16.44,73190.8,1.85,1.51,1.51,0,*76
1530334839.9,15132,16.44,73194.3,1.89,1.67,1.75,0,*7A
1530334841.12,15133,16.44,73198.5,1.91,1.67,1.67,0,*71
1530334842.37,15134,16.44,73188.3,1.89,1.43,1.51,0,*7C
1530334843.62,15135,16.44,73188.8,1.89,1.17,1.17,0,*7E
1530334844.82,15136,16.44,73190.3,1.91,1.41,1.43,0,*76
1530334846.06,15137,16.44,73192.0,1.91,1.55,1.55,0,*75
1530334847.29,15138,16.44,73180.3,1.91,1.55,1.51,0,*7E
1530334848.48,15139,16.44,73184.8,1.89,1.41,1.41,0,*72
1530334849.73,15140,16.44,73166.3,1.93,1.43,1.47,0,*73
1530334850.96,15141,16.44,73156.5,1.91,1.55,1.55,0,*74
1530334852.18,15142,16.44,73162.0,1.91,1.51,1.51,0,*77
1530334853.41,15143,16.44,73166.5,1.91,1.67,1.67,0,*76
1530334854.66,15144,16.44,73174.8,1.93,1.67,1.67,0,*73
1530334855.9,15145,16.44,73144.0,1.93,1.59,1.59,0,*72
1530334857.15,15146,16.44,73172.8,1.93,1.67,1.71,0,*76
1530334858.4,15147,16.44,73162.3,1.93,1.67,1.67,0,*70
1530334859.62,15148,16.44,73188.5,1.95,1.59,1.59,0,*79
1530334860.86,15149,16.44,73164.5,1.93,1.47,1.47,0,*7E
1530334862.09,15150,16.44,73186.5,1.95,1.47,1.55,0,*73
1530334863.32,15151,16.44,73164.5,1.95,1.25,1.33,0,*76
1530334864.54,15152,16.44,73170.5,1.95,1.43,1.55,0,*75
1530334865.8,15153,16.44,73180.0,1.93,1.55,1.55,0,*75
1530334867.02,15154,16.44,73194.3,1.95,1.59,1.67,0,*79
1530334868.24,15155,16.44,73188.8,1.95,1.59,1.59,0,*75
1530334869.47,15156,16.44,73182.8,1.95,1.33,1.25,0,*71
1530334870.68,15157,16.44,73172.5,1.95,0.33,0.33,0,*77
1530334871.93,15158,16.44,73178.5,1.93,-0.23,-0.23,0,*7E
1530334873.14,15159,16.44,73176.5,1.93,-0.11,-0.03,0,*4C
1530334874.31,15160,16.44,73174.8,1.91,-0.07,-0.03,0,*73
1530334875.53,15161,16.44,73180.5,1.91,0.29,0.29,0,*76
1530334876.77,15162,16.44,73184.0,1.89,0.59,0.59,0,*7C
1530334877.98,15163,16.44,73150.8,1.89,0.37,0.43,0,*7E
1530334879.19,15164,16.44,73146.5,1.89,0.37,0.43,0,*79
1530334880.43,15165,16.44,73156.5,1.85,0.63,0.63,0,*77
1530334881.63,15166,16.44,73176.8,1.83,1.01,1.09,0,*7A
1530334882.85,15167,16.44,73182.0,1.83,0.79,0.87,0,*72
1530334884.03,15168,16.44,73146.0,1.83,0.43,0.41,0,*7E
1530334885.24,15169,16.44,73172.0,1.83,0.63,0.67,0,*79
1530334886.48,15170,16.44,73158.0,1.85,0.41,0.25,0,*71
1530334887.69,15171,16.44,73172.5,1.83,0.33,0.33,0,*74
1530334888.9,15172,16.44,73172.8,1.83,0.75,0.79,0,*7B
1530334890.09,15173,16.44,73160.3,1.83,1.41,1.47,0,*70
1530334891.3,15174,16.44,73156.8,1.83,1.83,1.85,0,*77
1530334892.54,15175,16.44,73186.5,1.85,1.89,1.89,0,*76
1530334893.76,15176,16.44,73174.3,1.83,2.01,2.09,0,*7B
1530334895.01,15177,16.44,73182.3,1.85,2.09,2.09,0,*74
1530334896.26,15178,16.44,73184.3,1.89,2.05,2.05,0,*77
1530334897.5,15179,16.44,73186.5,1.91,2.01,2.05,0,*7B
1530334898.7,15180,16.44,73182.3,1.91,2.25,2.27,0,*7B
1530334899.9,15181,16.44,73190.0,1.93,2.27,2.31,0,*7D
1530334901.13,15182,16.44,73182.0,1.95,2.17,2.21,0,*7A
1530334902.31,15183,16.44,73172.3,1.95,1.79,1.83,0,*7B
1530334903.53,15184,16.44,73166.0,1.95,1.71,1.67,0,*7E
1530334904.77,15185,16.44,73158.3,1.95,1.37,1.33,0,*7C
1530334906.0,15186,16.44,73142.5,1.95,1.25,1.25,0,*7B
1530334907.23,15187,16.44,73140.0,1.97,1.83,1.85,0,*7E
1530334908.48,15188,16.44,73140.5,1.97,2.09,2.09,0,*77
1530334909.71,15189,16.44,73152.3,1.99,2.13,2.13,0,*78
1530334910.96,15190,16.44,73156.0,1.97,2.09,2.09,0,*7E
1530334912.18,15191,16.44,73172.3,1.99,2.01,2.01,0,*71
1530334913.38,15192,16.44,73180.5,1.99,1.75,1.67,0,*71
1530334914.64,15193,16.44,73184.3,1.97,1.25,1.09,0,*73
1530334915.85,15194,16.44,73152.0,1.99,0.59,0.59,0,*74
1530334917.09,15195,16.44,73140.0,1.97,0.75,0.63,0,*7C
1530334918.3,15196,16.44,73142.0,1.99,1.13,1.05,0,*71
1530334919.55,15197,16.44,73130.0,1.97,1.09,1.13,0,*72
1530334920.81,15198,16.44,73126.0,1.97,1.13,1.21,0,*77
1530334922.0,15199,16.44,73122.0,1.97,1.41,1.41,0,*77
1530334923.23,15200,16.44,73128.0,1.97,1.63,1.75,0,*73
1530334924.46,15201,16.44,73150.8,1.99,2.05,2.05,0,*7B
1530334925.68,15202,16.44,73154.8,1.99,2.05,2.05,0,*78
1530334926.93,15203,16.38,73156.0,1.97,2.01,2.01,0,*77
1530334928.16,15204,16.44,73172.0,1.99,2.05,2.13,0,*79
1530334929.41,15205,16.44,73172.3,1.97,1.85,1.93,0,*76
1530334930.59,15206,16.44,73194.5,1.99,1.79,1.79,0,*7C
1530334931.84,15207,16.44,73198.5,2.01,1.85,1.89,0,*73
1530334933.04,15208,16.44,73196.8,2.03,1.89,1.83,0,*78
1530334934.29,15209,16.44,73186.5,2.01,1.89,1.89,0,*71
1530334935.52,15210,16.44,73190.3,2.03,1.93,2.01,0,*73
1530334936.77,15211,16.44,73196.5,2.01,2.01,2.05,0,*7C
1530334938.02,15212,16.44,73198.8,2.01,1.97,1.97,0,*7B
1530334939.27,15213,16.44,73196.3,2.01,1.97,1.89,0,*75
1530334940.5,15214,16.44,73194.5,2.03,1.93,2.01,0,*77
1530334941.73,15215,16.44,73182.3,2.03,1.71,1.67,0,*79
1530334942.97,15216,16.44,73172.8,2.03,1.29,1.33,0,*76
1530334944.2,15217,16.44,73170.8,2.03,1.43,1.37,0,*7F
1530334945.44,15218,16.44,73160.0,2.03,1.29,1.29,0,*73
1530334946.69,15219,16.44,73148.0,2.01,1.63,1.67,0,*74
1530334947.87,15220,16.44,73140.5,2.03,1.79,1.79,0,*78
1530334949.08,15221,16.44,73122.8,2.01,1.79,1.75,0,*77
1530334950.28,15222,16.44,73130.8,2.01,1.75,1.79,0,*74
1530334951.51,15223,16.44,73142.3,2.03,1.55,1.59,0,*77
1530334952.77,15224,16.44,73142.8,2.01,1.29,1.29,0,*7E
1530334953.99,15225,16.44,73146.5,2.03,1.43,1.43,0,*7D
1530334955.22,15226,16.44,73150.8,2.01,1.41,1.33,0,*79
1530334956.45,15227,16.44,73138.3,2.01,1.33,1.41,0,*78
1530334957.68,15228,16.44,73126.8,2.03,1.55,1.59,0,*7C
1530334958.9,15229,16.44,73124.8,2.03,1.59,1.59,0,*71
1530334960.12,15230,16.44,73124.5,2.03,1.47,1.47,0,*79
1530334961.37,15231,16.44,73160.8,2.05,1.43,1.43,0,*7E
1530334962.61,15232,16.44,73140.3,2.03,1.37,1.37,0,*7B
1530334963.84,15233,16.44,73168.5,2.03,1.47,1.55,0,*79
1530334965.09,15234,16.44,73176.8,2.01,1.55,1.55,0,*7F
1530334966.27,15235,16.44,73194.8,2.03,1.05,1.05,0,*7C
1530334967.51,15236,16.44,73194.0,2.01,0.71,0.71,0,*7D
1530334968.74,15237,16.44,73188.3,1.99,0.91,0.83,0,*7D
1530334969.96,15238,16.44,73190.5,1.99,0.83,0.71,0,*7C
1530334971.18,15239,16.44,73186.3,1.99,0.83,0.83,0,*70
1530334972.36,15240,16.44,73172.0,1.97,0.43,0.43,0,*70
1530334973.58,15241,16.44,73166.8,1.95,0.83,0.75,0,*7A
1530334974.81,15242,16.38,73162.3,1.95,1.17,1.17,0,*70
1530334976.04,15243,16.44,73160.0,1.95,1.25,1.21,0,*75
1530334977.28,15244,16.44,73162.5,1.95,1.33,1.25,0,*71
1530334978.53,15245,16.44,73172.0,1.93,1.25,1.25,0,*71
1530334979.76,15246,16.44,73170.5,1.95,1.25,1.33,0,*73
1530334981.02,15247,16.44,73176.8,1.93,1.25,1.33,0,*74
1530334982.26,15248,16.44,73180.8,1.95,1.21,1.21,0,*7A
1530334983.5,15249,16.44,73182.3,1.95,1.17,1.09,0,*74
1530334984.73,15250,16.44,73160.5,1.95,1.17,1.09,0,*7C
1530334985.99,15251,16.44,73156.0,1.93,1.17,1.17,0,*74
1530334987.22,15252,16.44,73170.8,1.95,1.25,1.25,0,*71
1530334988.48,15253,16.44,73176.8,1.93,1.33,1.33,0,*76
1530334989.74,15254,16.44,73208.3,1.93,1.25,1.21,0,*75
1530334990.98,15255,16.44,73192.3,1.93,0.75,0.83,0,*79
1530334992.22,15256,16.44,73178.5,1.93,0.75,0.75,0,*73
1530334993.46,15257,16.44,73176.3,1.93,0.75,0.71,0,*76
1530334994.72,15258,16.44,73186.8,1.93,1.21,1.25,0,*79
1530334995.97,15259,16.44,73172.0,1.93,0.87,0.87,0,*7C
1530334997.21,15260,16.44,73136.5,1.93,0.59,0.59,0,*76
1530334998.43,15261,16.44,73120.5,1.91,0.67,0.59,0,*78
1530334999.67,15262,16.44,73128.8,1.89,0.55,0.55,0,*7F
1530335000.9,15263,16.44,73132.8,1.91,0.83,0.91,0,*74
1530335002.1,15264,16.44,73138.5,1.89,1.05,1.05,0,*79
1530335003.28,15265,16.44,73164.5,1.91,1.05,1.05,0,*71
1530335004.54,15266,16.44,73178.5,1.89,1.21,1.21,0,*7B
1530335005.8,15267,16.44,73178.5,1.89,1.29,1.21,0,*72
1530335007.04,15268,16.44,73176.8,1.91,1.33,1.29,0,*77
1530335008.26,15269,16.44,73180.5,1.89,1.41,1.43,0,*76
1530335009.46,15270,16.44,73178.5,1.91,1.41,1.43,0,*77
1530335010.72,15271,16.44,73174.8,1.89,1.21,1.17,0,*78
1530335011.97,15272,16.44,73164.8,1.89,1.17,1.21,0,*7B
1530335013.23,15273,16.44,73170.3,1.89,1.33,1.33,0,*7F
1530335014.43,15274,16.44,73174.3,1.91,1.41,1.43,0,*73
1530335015.68,15275,16.44,73184.0,1.89,1.51,1.55,0,*7D
1530335016.91,15276,16.44,73178.0,1.91,1.63,1.55,0,*76
1530335018.15,15277,16.44,73182.8,1.91,1.21,1.13,0,*73
1530335019.39,15278,16.44,73180.5,1.93,0.83,0.71,0,*72
1530335020.62,15279,16.44,73184.5,1.89,0.59,0.67,0,*78
1530335021.86,15280,16.38,73192.5,1.89,0.59,0.59,0,*73
1530335023.11,15281,16.44,73200.3,1.89,0.79,0.79,0,*72
1530335024.36,15282,16.44,73198.3,1.89,1.17,1.17,0,*71
1530335025.62,15283,16.44,73202.0,1.89,1.33,1.33,0,*70
1530335026.88,15284,16.44,73190.0,1.89,1.33,1.33,0,*77
1530335028.14,15285,16.44,73190.3,1.89,1.33,1.33,0,*76
1530335029.38,15286,16.44,73190.5,1.89,1.43,1.43,0,*75
1530335030.61,15287,16.44,73188.8,1.91,1.63,1.63,0,*7D
1530335031.84,15288,16.44,73182.3,1.89,1.67,1.75,0,*78
1530335033.07,15289,16.44,73190.3,1.91,1.63,1.63,0,*73
1530335034.29,15290,16.44,73192.8,1.91,1.63,1.67,0,*7F
1530335035.48,15291,16.44,73190.3,1.91,1.79,1.79,0,*7A
1530335036.71,15292,16.38,73192.0,1.91,1.85,1.85,0,*79
1530335037.92,15293,16.44,73202.3,1.93,1.79,1.83,0,*7F
1530335039.14,15294,16.44,73204.3,1.93,1.83,1.89,0,*77
1530335040.39,15295,16.44,73212.0,1.93,1.67,1.67,0,*7C
1530335041.64,15296,16.44,73196.8,1.93,1.47,1.55,0,*7C
1530335042.82,15297,16.44,73196.8,1.95,1.79,1.79,0,*78
1530335044.07,15298,16.44,73204.5,1.93,1.97,1.97,0,*71
1530335045.3,15299,16.44,73212.5,1.95,1.97,1.97,0,*76
1530335046.53,15300,16.44,73218.5,1.95,1.97,2.05,0,*7F
1530335047.76,15301,16.44,73210.5,1.95,2.09,2.17,0,*79
1530335049.01,15302,16.44,73200.5,1.97,2.25,2.25,0,*77
1530335050.21,15303,16.44,73192.5,1.99,2.27,2.39,0,*77
1530335051.41,15304,16.44,73206.3,1.99,2.25,2.35,0,*7E
1530335052.67,15305,16.44,73202.0,2.01,1.89,1.85,0,*70
1530335053.91,15306,16.44,73198.8,2.01,1.89,1.97,0,*70
1530335055.16,15307,16.44,73208.5,2.01,2.05,2.05,0,*7E
1530335056.4,15308,16.44,73208.3,2.03,2.09,2.09,0,*73
1530335057.62,15309,16.44,73204.0,2.03,1.89,1.93,0,*79
1530335058.86,15310,16.44,73200.8,2.03,1.33,1.33,0,*7A
1530335060.09,15311,16.44,73204.5,2.01,0.67,0.67,0,*79
1530335061.33,15312,16.44,73202.8,2.01,0.59,0.59,0,*7A
1530335062.57,15313,16.44,73204.0,1.99,1.29,1.33,0,*72
1530335063.79,15314,16.44,73210.0,1.99,1.67,1.63,0,*7A
1530335064.97,15315,16.44,73204.0,1.99,1.79,1.79,0,*7F
1530335066.15,15316,16.44,73208.8,1.99,1.75,1.75,0,*7C
1530335067.38,15317,16.44,73192.3,1.99,1.55,1.51,0,*79
1530335068.58,15318,16.44,73200.5,1.99,1.29,1.41,0,*7C
1530335069.81,15319,16.44,73202.8,1.99,1.25,1.29,0,*7F
1530335071.03,15320,16.44,73206.8,1.99,0.91,0.83,0,*7A
1530335072.29,15321,16.44,73204.0,1.97,1.37,1.37,0,*76
1530335073.54,15322,16.44,73208.0,1.97,1.63,1.63,0,*75
1530335074.72,15323,16.44,73210.0,1.99,1.75,1.79,0,*76
1530335075.94,15324,16.44,73208.0,1.99,1.51,1.55,0,*79
1530335077.17,15325,16.44,73202.3,1.99,1.51,1.51,0,*7C
1530335078.38,15326,16.44,73200.5,1.99,1.43,1.43,0,*7F
1530335079.62,15327,16.44,73196.5,1.97,0.87,0.95,0,*73
1530335080.84,15328,16.44,73190.3,1.99,0.29,0.29,0,*71
1530335082.08,15329,16.44,73190.3,1.97,0.55,0.55,0,*7E
1530335083.29,15330,16.44,73188.3,1.99,0.67,0.79,0,*77
1530335084.53,15331,16.44,73182.0,1.95,1.21,1.33,0,*76
1530335085.71,15332,16.44,73188.3,1.95,1.83,1.83,0,*76
1530335086.93,15333,16.44,73188.5,1.95,1.93,1.97,0,*73
1530335088.18,15334,16.44,73200.8,1.97,1.93,1.97,0,*76
1530335089.36,15335,16.44,73208.3,1.99,1.79,1.75,0,*71
1530335090.57,15336,16.44,73208.8,1.99,0.95,0.95,0,*7E
1530335091.81,15337,16.44,73200.5,1.97,0.55,0.55,0,*71
1530335093.05,15338,16.44,73208.8,1.97,0.51,0.51,0,*7E
1530335094.27,15339,16.44,73216.8,1.95,0.63,0.75,0,*7A
1530335095.48,15340,16.44,73208.5,1.95,0.41,0.41,0,*73
1530335096.7,15341,16.44,73206.0,1.95,0.47,0.47,0,*72
1530335097.94,15342,16.44,73210.8,1.93,0.47,0.47,0,*77
1530335099.19,15343,16.44,73218.8,1.93,0.51,0.59,0,*7E
1530335100.43,15344,16.44,73194.3,1.93,0.25,0.25,0,*71
1530335101.64,15345,16.44,73210.0,1.91,0.33,0.33,0,*72
1530335102.85,15346,16.44,73196.8,1.91,0.21,0.29,0,*79
1530335104.1,15347,16.44,73202.8,1.89,0.21,0.21,0,*79
1530335105.28,15348,16.44,73204.0,1.91,-0.15,-0.15,0,*7F
1530335106.5,15349,16.44,73204.3,1.85,-0.11,-0.11,0,*7B
1530335107.71,15350,16.44,73202.3,1.83,0.29,0.25,0,*79
1530335108.94,15351,16.44,73208.3,1.85,0.63,0.67,0,*76
1530335110.15,15352,16.44,73196.5,1.83,0.41,0.41,0,*77
1530335111.36,15353,16.44,73184.5,1.83,0.63,0.63,0,*76
1530335112.57,15354,16.44,73166.8,1.83,0.67,0.79,0,*7E
1530335113.82,15355,16.44,73152.8,1.81,1.55,1.63,0,*77
1530335115.02,15356,16.44,73150.8,1.83,1.71,1.75,0,*77
1530335116.24,15357,16.44,73138.0,1.83,1.47,1.47,0,*72
1530335117.49,15358,16.44,73144.3,1.85,1.59,1.63,0,*72
1530335118.72,15359,16.44,73162.3,1.85,1.83,1.85,0,*7C
1530335119.92,15360,16.44,73166.0,1.85,1.83,1.75,0,*79
1530335121.18,15361,16.44,73174.0,1.85,1.85,1.85,0,*71
1530335122.41,15362,16.44,73170.5,1.91,1.85,1.85,0,*77
1530335123.6,15363,16.44,73166.8,1.91,1.75,1.75,0,*76
1530335124.82,15364,16.44,73178.8,1.91,1.63,1.63,0,*71
1530335126.03,15365,16.44,73196.8,1.91,1.67,1.75,0,*73
1530335127.21,15366,16.44,73190.0,1.91,1.79,1.79,0,*73
1530335128.44,15367,16.44,73192.5,1.91,1.63,1.63,0,*72
1530335129.64,15368,16.44,73216.5,1.93,1.83,1.83,0,*7F
1530335130.85,15369,16.44,73208.5,1.93,1.79,1.83,0,*7B
1530335132.07,15370,16.44,73196.5,1.95,1.71,1.71,0,*70
1530335133.25,15371,16.44,73196.0,1.95,1.79,1.79,0,*71
1530335134.45,15372,16.44,73200.5,1.95,1.89,1.83,0,*78
1530335135.63,15373,16.44,73208.3,1.95,1.83,1.83,0,*73
1530335136.86,15374,16.44,73216.3,1.95,1.97,1.97,0,*74
1530335138.04,15375,16.44,73204.3,1.95,1.79,1.83,0,*70
1530335139.3,15376,16.44,73214.0,1.97,1.85,1.85,0,*74
1530335140.49,15377,16.44,73172.0,1.97,1.41,1.41,0,*75
1530335141.74,15378,16.44,73202.5,1.97,0.91,0.91,0,*7A
1530335142.97,15379,16.44,73182.0,1.97,0.25,0.13,0,*7E
1530335144.2,15380,16.44,73154.5,1.95,-0.27,-0.23,0,*7B
1530335145.45,15381,16.44,73182.8,1.93,0.41,0.47,0,*7E
1530335146.68,15382,16.44,73168.3,1.93,0.63,0.63,0,*7B
1530335147.93,15383,16.44,73176.8,1.93,0.83,0.87,0,*7E
1530335149.18,15384,16.44,73166.8,1.93,0.83,0.75,0,*74
1530335150.42,15385,16.44,73186.3,1.89,0.47,0.55,0,*74
1530335151.66,15386,16.44,73150.3,1.89,0.55,0.55,0,*74
1530335152.89,15387,16.44,73124.8,1.91,0.79,0.79,0,*7C
1530335154.12,15388,16.38,73120.0,1.89,0.71,0.71,0,*7A
1530335155.34,15389,16.44,73158.8,1.91,0.95,0.95,0,*72
1530335156.54,15390,16.44,73162.8,1.89,1.01,1.01,0,*73
1530335157.8,15391,16.44,73134.0,1.89,1.13,1.13,0,*72
1530335159.03,15392,16.44,73138.8,1.85,1.37,1.41,0,*7C
1530335160.23,15393,16.44,73162.0,1.89,1.75,1.75,0,*70
1530335161.45,15394,16.44,73166.0,1.91,1.93,1.89,0,*75
1530335162.67,15395,16.44,73150.5,1.91,1.93,1.89,0,*74
1530335163.91,15396,16.44,73190.5,1.91,1.85,1.85,0,*7C
1530335165.12,15397,16.44,73164.5,1.91,1.79,1.85,0,*7E
1530335166.32,15398,16.44,73162.3,1.93,1.83,1.83,0,*70
1530335167.55,15399,16.44,73168.3,1.93,1.79,1.71,0,*79
1530335168.8,15400,16.44,73188.5,1.93,1.67,1.67,0,*76
1530335170.0,15401,16.44,73214.3,1.95,1.71,1.79,0,*79
1530335171.26,15402,16.44,73200.8,1.93,1.55,1.55,0,*74
1530335172.44,15403,16.44,73216.0,1.95,1.79,1.83,0,*76
1530335173.69,15404,16.44,73212.0,1.93,1.97,1.93,0,*76
1530335174.91,15405,16.44,73214.3,1.95,1.89,1.89,0,*75
1530335176.12,15406,16.44,73218.0,1.95,1.89,1.89,0,*76
1530335177.31,15407,16.44,73208.3,1.95,1.79,1.79,0,*77
1530335178.55,15408,16.44,73210.5,1.97,1.93,1.93,0,*7A
1530335179.77,15409,16.44,73210.0,1.99,1.67,1.67,0,*75
1530335181.01,15410,16.44,73204.3,1.99,1.29,1.25,0,*71
1530335182.27,15411,16.44,73210.8,1.97,1.13,1.21,0,*73
1530335183.49,15412,16.44,73198.3,1.97,1.41,1.47,0,*77
1530335184.71,15413,16.44,73182.5,1.97,1.29,1.41,0,*7E
1530335185.9,15414,16.44,73182.5,1.97,1.41,1.41,0,*77
1530335187.1,15415,16.44,73178.5,1.97,1.83,1.83,0,*76
1530335188.33,15416,16.44,73184.0,1.99,2.05,2.05,0,*7B
1530335189.58,15417,16.44,73202.5,1.97,2.13,2.13,0,*74
1530335190.81,15418,16.44,73196.0,1.99,2.01,2.05,0,*71
1530335192.04,15419,16.44,73198.3,1.99,1.97,1.97,0,*74
1530335193.27,15420,16.44,73188.8,2.03,2.09,2.09,0,*7E
1530335194.52,15421,16.44,73190.3,2.01,2.05,2.05,0,*7D
1530335195.77,15422,16.44,73188.0,2.01,1.85,1.89,0,*72
1530335197.0,15423,16.44,73188.3,2.03,2.01,2.05,0,*79
1530335198.25,15424,16.44,73188.0,2.01,2.05,2.05,0,*78
1530335199.49,15425,16.44,73194.0,2.03,2.09,2.17,0,*74
1530335200.74,15426,16.44,73208.8,2.05,2.09,2.21,0,*74
1530335201.94,15427,16.44,73200.5,2.05,2.27,2.27,0,*7F
1530335203.19,15428,16.44,73206.0,2.05,1.93,1.93,0,*70
1530335204.45,15429,16.44,73202.3,2.05,2.09,2.09,0,*71
1530335205.67,15430,16.44,73188.5,2.07,2.05,2.05,0,*7B
1530335206.9,15431,16.44,73192.8,2.07,2.09,2.13,0,*71
1530335208.13,15432,16.44,73186.3,2.07,1.97,2.05,0,*71
1530335209.35,15433,16.44,73202.8,2.07,1.97,2.05,0,*70
1530335210.61,15434,16.44,73204.8,2.05,2.05,2.13,0,*7A
1530335211.84,15435,16.44,73194.3,2.07,2.05,2.05,0,*7E
1530335213.06,15436,16.44,73194.3,2.07,1.97,1.97,0,*7D
1530335214.28,15437,16.44,73206.0,2.11,1.51,1.51,0,*7B
1530335215.48,15438,16.44,73208.0,2.13,1.41,1.41,0,*76
1530335216.66,15439,16.44,73204.5,2.11,1.75,1.79,0,*79
1530335217.84,15440,16.44,73208.8,2.07,1.83,1.75,0,*75
1530335219.06,15441,16.44,73216.0,2.07,1.59,1.51,0,*75
1530335220.32,15442,16.44,73214.0,2.05,1.33,1.37,0,*78
1530335221.58,15443,16.44,73218.5,2.05,1.29,1.29,0,*7D
1530335222.83,15444,16.44,73218.0,2.05,1.47,1.47,0,*7A
1530335224.08,15445,16.44,73220.5,2.05,1.59,1.55,0,*77
1530335225.3,15446,16.44,73224.0,2.07,1.59,1.63,0,*73
1530335226.5,15447,16.44,73200.8,2.07,1.41,1.37,0,*7A
1530335227.75,15448,16.44,73206.0,2.05,1.67,1.67,0,*76
1530335229.0,15449,16.44,73210.0,2.05,1.89,1.93,0,*7C
1530335230.25,15450,16.44,73212.8,2.05,1.93,1.93,0,*7F
1530335231.48,15451,16.44,73230.0,2.07,1.97,2.05,0,*74
1530335232.73,15452,16.44,73228.3,2.05,1.93,1.93,0,*7D
1530335233.93,15453,16.44,73228.3,2.07,1.75,1.85,0,*71
1530335235.16,15454,16.44,73228.3,2.11,1.63,1.67,0,*7A
1530335236.35,15455,16.44,73236.3,2.07,1.79,1.71,0,*70
1530335237.59,15456,16.44,73242.5,2.07,1.21,1.13,0,*7A
1530335238.81,15457,16.44,73238.8,2.07,0.79,0.87,0,*7B
1530335240.04,15458,16.44,73234.8,2.05,-0.23,-0.37,0,*72
1530335241.25,15459,16.44,73220.8,2.01,-0.41,-0.29,0,*7C
1530335242.49,15460,16.44,73160.0,2.01,0.17,0.21,0,*7D
1530335243.67,15461,16.44,73162.5,1.99,1.05,1.05,0,*7B
1530335244.84,15462,16.44,73172.3,1.99,1.05,1.01,0,*7C
1530335246.08,15463,16.44,73186.3,1.97,0.67,0.75,0,*74
1530335247.3,15464,16.44,73198.3,1.99,1.25,1.25,0,*7E
1530335248.53,15465,16.44,73214.5,1.97,1.29,1.41,0,*7F
1530335249.75,15466,16.44,73212.0,1.99,0.71,0.71,0,*7C
1530335250.95,15467,16.44,73216.0,1.97,-0.29,-0.37,0,*7C
1530335252.13,15468,16.44,73216.3,1.95,-0.37,-0.37,0,*7E
1530335253.33,15469,16.44,73200.3,1.93,-0.61,-0.53,0,*78
1530335254.55,15470,16.44,73204.5,1.93,-0.41,-0.41,0,*71
1530335255.76,15471,16.44,73198.0,1.89,-0.45,-0.41,0,*7F
1530335256.95,15472,16.44,73192.8,1.89,0.05,0.05,0,*78
1530335258.18,15473,16.44,73198.8,1.89,0.33,0.33,0,*79
1530335259.34,15474,16.44,73200.5,1.83,0.05,0.05,0,*74
1530335260.57,15475,16.44,73196.0,1.85,0.13,0.17,0,*77
1530335261.76,15476,16.44,73194.8,1.83,-0.19,-0.19,0,*76
1530335262.94,15477,16.44,73170.5,1.83,-0.33,-0.41,0,*72
1530335264.16,15478,16.44,73170.5,1.79,0.17,0.21,0,*78
1530335265.37,15479,16.44,73172.5,1.79,0.67,0.71,0,*7B
1530335266.62,15480,16.44,73170.0,1.77,0.59,0.59,0,*74
1530335267.84,15481,16.44,73174.0,1.79,0.21,0.17,0,*7E
1530335269.01,15482,16.44,73186.3,1.79,0.05,-0.03,0,*53
1530335270.21,15483,16.44,73172.5,1.77,-0.07,-0.07,0,*77
1530335271.4,15484,16.44,73162.0,1.75,-0.41,-0.37,0,*73
1530335272.62,15485,16.44,73160.8,1.75,0.21,0.29,0,*7B
1530335273.83,15486,16.44,73170.3,1.75,0.29,0.29,0,*70
1530335275.05,15487,16.44,73182.0,1.75,0.21,0.17,0,*74
1530335276.29,15488,16.44,73188.3,1.73,0.29,0.29,0,*78
1530335277.52,15489,16.44,73180.8,1.73,0.41,0.41,0,*79
1530335278.76,15490,16.44,73142.8,1.71,0.59,0.63,0,*7A
1530335279.99,15491,16.44,73154.3,1.73,0.67,0.67,0,*70
1530335281.22,15492,16.44,73154.5,1.73,0.67,0.67,0,*73
1530335282.45,15493,16.44,73110.5,1.71,0.41,0.41,0,*70
1530335283.69,15494,16.44,73094.8,1.73,0.67,0.63,0,*71
1530335284.92,15495,16.44,73098.0,1.71,0.41,0.41,0,*76
1530335286.16,15496,16.44,73114.5,1.71,0.47,0.37,0,*72
1530335287.35,15497,16.44,73138.8,1.71,0.09,0.09,0,*74
1530335288.59,15498,16.44,73156.5,1.71,0.37,0.37,0,*7B
1530335289.83,15499,16.44,73138.8,1.71,0.75,0.75,0,*7A
1530335291.03,15500,16.44,73170.5,1.73,1.05,1.05,0,*79
1530335292.29,15501,16.44,73176.3,1.73,1.17,1.17,0,*78
1530335293.55,15502,16.44,73194.8,1.71,1.13,1.17,0,*7D
1530335294.8,15503,16.44,73198.0,1.73,1.25,1.25,0,*7A
1530335296.05,15504,16.44,73196.3,1.73,1.51,1.51,0,*7D
1530335297.29,15505,16.44,73200.0,1.73,1.59,1.63,0,*75
1530335298.54,15506,16.44,73208.3,1.73,1.71,1.63,0,*7C
1530335299.75,15507,16.44,73208.0,1.77,1.75,1.75,0,*7A
1530335300.96,15508,16.44,73208.8,1.77,1.79,1.83,0,*70
1530335302.14,15509,16.44,73206.5,1.79,1.75,1.75,0,*7A
1530335303.33,15510,16.44,73208.5,1.79,1.75,1.75,0,*72
1530335304.55,15511,16.44,73210.0,1.81,1.83,1.85,0,*72
1530335305.77,15512,16.44,73204.0,1.83,1.89,1.89,0,*75
1530335307.02,15513,16.44,73202.3,1.81,1.97,1.93,0,*72
1530335308.27,15514,16.44,73200.8,1.81,1.97,1.97,0,*71
1530335309.49,15515,16.44,73200.8,1.83,2.21,2.25,0,*76
1530335310.71,15516,16.44,73202.5,1.83,2.09,2.21,0,*7B
1530335311.96,15517,16.44,73200.3,1.85,2.01,1.97,0,*7A
1530335313.22,15518,16.44,73200.5,1.85,2.01,2.13,0,*7A
1530335314.47,15519,16.44,73210.8,1.85,2.13,2.17,0,*7C
1530335315.67,15520,16.44,73204.3,1.91,2.25,2.35,0,*76
1530335316.91,15521,16.44,73210.3,1.91,2.47,2.51,0,*71
1530335318.13,15522,16.44,73206.3,1.95,2.55,2.55,0,*71
1530335319.37,15523,16.44,73198.8,1.95,2.43,2.43,0,*70
1530335320.54,15524,16.44,73198.8,1.95,2.31,2.31,0,*77
1530335321.77,15525,16.44,73192.0,1.95,2.39,2.43,0,*7B
1530335322.98,15526,16.44,73194.5,1.99,2.59,2.61,0,*72
1530335324.21,15527,16.44,73190.3,1.99,2.47,2.59,0,*77
1530335325.44,15528,16.44,73188.3,1.99,2.47,2.47,0,*77
1530335326.67,15529,16.44,73182.8,1.99,2.47,2.51,0,*71
1530335327.9,15530,16.44,73190.5,1.99,2.13,2.25,0,*7B
1530335329.12,15531,16.44,73194.8,2.03,2.21,2.21,0,*7F
1530335330.33,15532,16.44,73178.5,2.01,2.27,2.27,0,*7E
1530335331.56,15533,16.44,73200.5,2.03,2.39,2.39,0,*7D
1530335332.74,15534,16.44,73208.3,2.03,2.27,2.27,0,*7A
1530335333.97,15535,16.44,73226.3,2.05,2.27,2.21,0,*7B